Location: Albany
(35.0000°S, 118.0000°E)
Time: 00:21:49
(UTC-04:00)

JAS-1B - Visible Passes

Search period start: 05 August 2015 00:00
Search period end: 15 August 2015 00:00
Orbit: 911 x 1744 km, 99.1° (Epoch: 04 August)

Date Brightness Start Highest point End Pass type
(mag) Time Alt. Az. Time Alt. Az. Time Alt. Az.
08 Aug 9.9 08:56:01 11° S 08:56:01 11° S 08:56:28 10° S visible
09 Aug 9.9 09:15:12 13° S 09:15:12 13° S 09:15:57 10° S visible
10 Aug 9.9 09:34:23 13° S 09:34:23 13° S 09:35:17 10° S visible
11 Aug 10.0 09:53:34 14° S 09:53:34 14° S 09:54:31 10° S visible
12 Aug 9.7 08:20:31 12° SSE 08:20:31 12° SSE 08:21:27 10° SSE visible
12 Aug 10.0 10:12:45 13° SSW 10:12:45 13° SSW 10:13:37 10° SSW visible
13 Aug 9.7 08:39:42 15° SSE 08:39:42 15° SSE 08:41:15 10° S visible
13 Aug 10.1 10:31:57 12° SSW 10:31:57 12° SSW 10:32:35 10° SSW visible
14 Aug 9.7 08:58:53 17° S 08:58:53 17° S 09:00:48 10° S visible
14 Aug 10.2 10:51:08 11° SSW 10:51:08 11° SSW 10:51:25 10° SSW visible
